COSMOS 2251 DEB, 40223

Orbit data source: Space-Track

COSMOS 2251 DEB, 40223 is space debris in LEO originally from a launch on Wed, 16 Jun 1993 UTC launched from the Plesetsk Missile And Space Complex (PKMTR). The debris from Iridium 33, an American commercial communications satellite, has been tracked extensively since its accidental collision with the defunct Russian satellite Cosmos 2251 in 2009. This event, occurring at high speed in low Earth orbit (LEO), generated thousands of pieces of space debris, significantly increasing the risk of further collisions. The Iridium 33 debris cloud has impacted space traffic management and orbital debris mitigation strategies, making it a subject of ongoing study in space situational awareness.

Loading next visibility...
COSMOS 2251 DEB details
Identifier
40223, 1993-036BVC
Orbit
LEO
Last TLE update15 hours ago
Origin
Flag of CISKVR (CIS)
ManufacturerUnknown
MissionSpacecraft
Bus & MotorUnknown
MassUnknown
Launch date (UTC)
1993-06-16 (31 years ago)
Launch vehicleUnknown
Launch site
Plesetsk Missile And Space Complex (PKMTR)
Object type
Payload
Rocket body
Debris
Shape & HBRUnknown
Radar Cross SectionSmall (<0.1 m²)

Expand to show TLE details & history

TLE from 15 hours ago
0 COSMOS 2251 DEB
1 40223U 93036BVC 24347.76954743  .00025116  00000-0  37891-2 0  9992
2 40223  73.9493  99.9506 0030651 355.3266 156.5564 14.73930806539483
Epoch: 2024-12-12T18:28Z
Definitive object data (Epoch: 2024-12-12T18:28:08.897Z)
Latitude26.84245°
Longitude-87.35798°
Altitude671.313 km
Speed7.513 km/s
True Right ascension18h 06m 29s
True Declination26° 42' 09"
Sunlit
Object was in daylight at TLE epoch
Visualization TLE readout
Latitude-30.18789°
Longitude-70.66889°
Altitude676.539 km
Speed7.508 km/s
Apparent Right ascension19h 31m 16s
Apparent Declination-34° 44' 21"
Sunlit
Object is in daylight
Visualization observer readout
Local Sidereal Time07:53:43
Azimuth42.513° NE
Elevation-83.167°
Doppler factor1
Orbital elements
Apogee altitude667.667 km
Perigee altitude624.607 km
Semi-major axis7,024.274 km
Eccentricity0.0030651
Inclination73.9493°
RAAN99.9506°
Arg. of periapsis355.3266°
True anomaly156.69565°
Mean anomaly156.5564°
Eccentric anomaly156.62607°
Mean motion3.68673 °/min
BSTAR0.0037891
Orbital period97.65 mins
Loading maneuver chart data...

COSMOS 2251 DEB Visibility forecast

Observer location: undefined°, undefined

Span
Click to sort rows by Start time (UTC) header in descending order
Start Az.
Max El. time (UTC)
Max El. Az.
Max El.
End time (UTC)
End Az.
5 mins2024-12-13 10:14:58.195Z268.392° W2024-12-13 10:16:58.195Z296.629° NW15.306°2024-12-13 10:19:58.195Z339.07° N
7 mins2024-12-13 18:46:58.195Z351.546° N2024-12-13 18:49:58.195Z55.59° ENE41.751°2024-12-13 18:53:58.195Z149.259° SSE
7 mins2024-12-14 09:00:58.195Z213.184° SW2024-12-14 09:03:58.195Z278.551° WNW41.439°2024-12-14 09:07:58.195Z10.8° NNE
|